Location: Newark
(23.3970°S, 47.6010°W)
Time: 08:26:53
(UTC+00:00)

Tiros 1 despin weight - Pass Details

Date: 26 February 2020
Orbit: 593 x 642 km, 48.2° (Epoch: 08 April)

Event Time Altitude Azimuth Distance (km) Brightness Sun altitude
Rises 22:01:27 0° 238° (WSW) 2,956 ? -5.2°
Reaches altitude 10° 22:04:02 10° 249° (WSW) 2,038 ? -5.8°
Maximum altitude 22:08:05 29° 309° (NW) 1,167 ? -6.7°
Drops below altitude 10° 22:12:05 10° 9° (N) 2,003 ? -7.6°
Sets 22:14:37 0° 20° (NNE) 2,896 ? -8.1°
